Regional Weather Roundup
Issued by NWS

Home | Current Version | Previous Version | Graphics & Text | Print | Product List | Glossary Off
Versions: 1 2 3 4 5 6 7 8 9 10 11 12 13 14 15 16 17 18 19 20 21 22 23 24 25 26 27 28 29 30 31 32 33 34 35 36 37 38 39 40 41 42 43 44 45 46 47 48 49 50

000
ASUS45 KPSR 280110
RWRAZ

ARIZONA HOURLY REGIONAL WEATHER ROUNDUP
NATIONAL WEATHER SERVICE PHOENIX AZ
600 PM MST MON JUL 27 2015

NOTE: FAIR INDICATES FEW OR NO CLOUDS BELOW 12,000 FEET WITH NO
SIGNIFICANT WEATHER AND/OR OBSTRUCTIONS TO VISIBILITY.

AZZ001>003-036-280200-
NORTHWEST ARIZONA

CITY           SKY/WX    TMP DP  RH WIND       PRES   REMARKS
BULLHEAD CITY  SUNNY    104  30   7 S17       29.68F
KINGMAN        SUNNY     93  10   4 SW20      29.91F
$$

AZZ004>008-015-016-018-280200-
NORTH CENTRAL ARIZONA

CITY           SKY/WX    TMP DP  RH WIND       PRES   REMARKS
GRAND CANYON   SUNNY     82  12   7 SW17      30.14S
WILLIAMS       SUNNY     79  32  18 W10G18    30.23S
PRESCOTT       FAIR      85  45  24 S12G18    30.05S
FLAGSTAFF      SUNNY     77  41  27 W9        30.19S
PAYSON         SUNNY     86  43  22 W9G17     30.08R
PAGE           SUNNY     96  19   6 W8        29.88F
$$

AZZ009>014-017-280200-
NORTHEAST ARIZONA

CITY           SKY/WX    TMP DP  RH WIND       PRES   REMARKS
WINSLOW        SUNNY     91  38  15 SW12G21   30.00S
SAINT JOHNS    MOSUNNY   87  41  19 W9        30.05F
WINDOW ROCK    FAIR      85  34  16 SW8       30.13F
SHOW LOW       SUNNY     81  37  21 SW10      30.15S
$$

AZZ023-280200-
GREATER PHOENIX AREA

CITY           SKY/WX    TMP DP  RH WIND       PRES   REMARKS
PHOENIX        MOSUNNY  105  52  17 NW12      29.71F HX 103
GLENDALE       MOSUNNY  104  54  18 SW8       29.73F HX 102
LUKE AFB       SUNNY    104  55  20 SW10G18   29.71F HX 103
DEER VALLEY    SUNNY    100  53  20 W10       29.75F
SCOTTSDALE     SUNNY    102  51  18 W7        29.77F
MESA-FALCON    MOSUNNY  104  50  16 SW9       29.75F HX 101
MESA-GATEWAY   MOSUNNY  102  52  18 N10       29.76F HX 100
CHANDLER       MOSUNNY  104  52  17 W10       29.73F HX 101
$$

AZZ027-028-280200-
SOUTHWEST MARICOPA COUNTY AND PINAL COUNTY

CITY           SKY/WX    TMP DP  RH WIND       PRES   REMARKS
CASA GRANDE    PTSUNNY  102  52  18 CALM      29.74F HX 100
GILA BEND      MOSUNNY  105  51  16 W14       29.70F HX 102
$$

AZZ503-504-507>509-280200-
SOUTHEAST ARIZONA

CITY           SKY/WX    TMP DP  RH WIND       PRES   REMARKS
TUCSON         PTSUNNY   98  47  17 W10       29.86F
DAVIS-MONTHAN  PTSUNNY   98  47  17 W8        29.85S
RYAN FIELD     SUNNY     99  52  20 SW8G16    29.85F
NOGALES        CLOUDY    80  61  52 SE8       29.99R
SIERRA VISTA   CLOUDY    84  54  34 NE12G23   30.05R
DOUGLAS          N/A    N/A N/A N/A MISG      29.98S
SAFFORD        MOSUNNY   99  46  16 NW12      29.84F
$$

AZZ020-021-025-026-031-280200-
SOUTHWEST ARIZONA

CITY           SKY/WX    TMP DP  RH WIND       PRES   REMARKS
YUMA           MOSUNNY  106  43  12 VRB7      29.66F HX 101
$$

CAZ031-033-041-043-047-048-061-280200-
SOUTHERN CALIFORNIA

CITY           SKY/WX    TMP DP  RH WIND       PRES   REMARKS
DOWNTOWN L.A.  SUNNY     76  62  62 CALM      29.85F
L.A. AIRPORT   MOSUNNY   73  63  70 W13       29.87F
SAN DIEGO      MOSUNNY   73  59  61 VRB6      29.89F
BURBANK        SUNNY     79  58  48 S10       29.86S
ONTARIO        MOSUNNY   84  55  36 SW13      29.86S
RIVERSIDE      SUNNY     83  57  41 W12       29.85S
PALM SPRINGS   SUNNY    102  48  16 NW15G21   29.70F
EL CENTRO NAS  SUNNY    105  28   7 CALM      29.66F
IMPERIAL       SUNNY    105  29   7 E9        29.64F
BLYTHE         SUNNY    106  21   5 S14       29.67F
NEEDLES        SUNNY    106  26   6 S10G21    29.69F
$$

NVZ020-UTZ003-280200-
SOUTHERN NEVADA-UTAH

CITY           SKY/WX    TMP DP  RH WIND       PRES   REMARKS
LAS VEGAS      SUNNY    102  18   5 VRB6      29.72F
SALT LAKE CITY MOSUNNY   76  38  25 N14G22    30.05S
$$

NMZ009-TXZ055-280200-
NEW MEXICO-WEST TEXAS

CITY           SKY/WX    TMP DP  RH WIND       PRES   REMARKS
ALBUQUERQUE    PTSUNNY   90  45  21 S13       30.01S
EL PASO        PTSUNNY   98  49  18 W15       29.89F
$$


........................KEY........................
SKY/WX - SKY CONDITION/WEATHER
TMP    - TEMPERATURE IN FAHRENHEIT
DP     - DEW POINT IN FAHRENHEIT
RH     - RELATIVE HUMIDITY IN PERCENT
WIND   - DIRECTION AND SPEED IN MILES PER HOUR (MPH)
VRB    - VARIABLE WIND DIRECTION
PRES   - MEAN SEA LEVEL PRESSURE IN INCHES OF MERCURY
         F - FALLING PRESSURE   R - RISING PRESSURE
         S - STEADY PRESSURE
VSB    - VISIBILITY IN MILES
HX     - HEAT INDEX IN FAHRENHEIT
WCI    - WIND CHILL INDEX IN FAHRENHEIT
TC     - TEMPERATURE IN CELSIUS WHICH IS ALSO KNOWN AS
         TEMPERATURE IN CENTIGRADE
AFB    - AIR FORCE BASE
         LUKE AFB IS LUKE AIR FORCE BASE
         DAVIS-MONTHAN IS DAVIS-MONTHAN AIR FORCE BASE
NAS    - NAVAL AIR STATION
         EL CENTRO NAS IS EL CENTRO NAVAL AIR STATION
N/A    - NOT AVAILABLE



USA.gov is the U.S. government's official web portal to all federal, state and local government web resources and services.